Regional Weather Roundup
Issued by NWS Northern Indiana

Home | Current Version | Previous Version | Graphics & Text | Print | Product List | Glossary On
Versions: 1 2 3 4 5 6 7 8 9 10 11 12 13 14 15 16 17 18 19 20 21 22 23 24 25 26 27 28 29 30 31 32 33 34 35 36 37 38 39 40 41 42 43 44 45 46 47 48 49 50
000
ASUS43 KIWX 080510
RWRIWX

KIWX WEATHER ROUNDUP
NATIONAL WEATHER SERVICE NORTHERN INDIANA
1200 AM EST THU DEC 08 2016

NOTE: "FAIR" INDICATES FEW OR NO CLOUDS BELOW 12,000 FEET WITH NO
SIGNIFICANT WEATHER AND/OR OBSTRUCTIONS TO VISIBILITY.

* THESE STATIONS ARE NOT UNDER NWS QUALITY CONTROL. THEY ALSO MAY NOT
  REPORT WEATHER SUCH AS PRECIPITATION OR FOG.

INZ001>027-080600-
NORTHERN INDIANA

CITY           SKY/WX    TMP DP  RH WIND       PRES   REMARKS
VALPARAISO     CLOUDY    24  15  68 W20G28    30.17R WCI  10
MICHIGAN CITY* CLOUDY    27  19  74 W14G21    30.15S WCI  15
LAPORTE*       CLOUDY    23  16  75 W15G21    30.15R WCI  10
KNOX*          CLOUDY    25   1  36 W17G23    30.16S WCI  11
SOUTH BEND     CLOUDY    25  18  74 W14       30.12R WCI  13
GOSHEN         CLOUDY    26  16  65 W15       30.12R WCI  14
MONTICELLO*    CLOUDY    25  14  64 W13G24    30.19R WCI  13
LOGANSPORT*    MOCLDY    25  19  80 W15       30.18S WCI  12
ROCHESTER*     MOCLDY    28  21  74 W12G30    30.15S WCI  18
WARSAW*        CLOUDY    27  18  69 W16G22    30.13R WCI  14
ANGOLA*        CLOUDY    27  19  74 W12       30.07R WCI  16
FORT WAYNE     MOCLDY    27  19  72 W15       30.13R WCI  15
HUNTINGTON*    CLOUDY    26  19  75 W12       30.14R WCI  16
PERU/GRISSOM   MOCLDY    25  18  73 W20       30.14S WCI  11
MARION*        PTCLDY    27  21  77 W20G26    30.17R WCI  13

$$
INZ028>050-080600-
CENTRAL INDIANA

CITY           SKY/WX    TMP DP  RH WIND       PRES   REMARKS
LAFAYETTE      PTCLDY    25  17  72 W13G23    30.21R WCI  14
KOKOMO*        PTCLDY    26  18  71 W22G28    30.17R WCI  12
MUNCIE*        MOCLDY    29  22  75 W13       30.16R WCI  19
INDIANAPOLIS   PTCLDY    27  21  78 W9        30.19R WCI  18

$$
MIZ043>046-050>051-056>058-064>065-071>073-077>080-080600-
SOUTHWEST LOWER MICHIGAN

CITY           SKY/WX    TMP DP  RH WIND       PRES   REMARKS
BATTLE CREEK   CLOUDY    29  21  72 W18G26    30.04S WCI  16
BENTON HARBOR  CLOUDY    28  20  71 W18G25    30.11R WCI  15
COLDWATER*     CLOUDY    28  21  72 W15       30.06R WCI  17
HILLSDALE*     CLOUDY    27  19  74 W13G20    30.03R WCI  16
HOLLAND        CLOUDY    28  20  71 W18G24    30.06S WCI  15
GRAND RAPIDS   FLURRIES  28  20  71 W22G29    30.04R WCI  14
KALAMAZOO      CLOUDY    29  19  66 W9G22     30.06R WCI  20
STURGIS*       CLOUDY    27  20  75 W13       30.07S WCI  16
THREE RIVERS*  CLOUDY    28  20  72 W15G21    30.08S WCI  17

$$
OHZ001>008-015>018-024>025-080600-
NORTHWEST OHIO

CITY           SKY/WX    TMP DP  RH WIND       PRES   REMARKS
WAUSEON*       CLOUDY    28  21  74 W17       30.07S WCI  16
DEFIANCE       CLOUDY    29  19  66 W9        30.10S WCI  20
FINDLAY        CLOUDY    30  22  72 W16       30.09S WCI  19
TOLEDO EXPRESS CLOUDY    29  22  75 W14       30.07S WCI  18
TOLEDO METCALF CLOUDY    31  22  69 W18       30.08S WCI  19
LIMA           CLOUDY    30  24  78 W21G28    30.11R WCI  17

$$
AND FOR LAKE MICHIGAN COASTAL AND OPEN LAKE BUOY OBSERVATIONS

STATION/POSITION TEMP    WIND        PRES    VSBY  WAVE
                 AIR SEA DIR/SP/G                  HT/PER
                 (F)     (DEG/KT/KT) (MB)    (MI)  (FT/S)
CALUMET HARBOR    24     250/ 13/ 18 1020.6S
MICHIGAN CITY     25     240/ 25/ 31   N/A
SAINT JOSEPH      30     260/ 17/ 24 1019.6

$$
&&




USA.gov is the U.S. government's official web portal to all federal, state and local government web resources and services.